Hourly Data Report for September 04, 2017

All times are specified in Local Standard Time (LST). Add 1 hour to adjust for Daylight Saving Time where and when it is observed.

WOODSTOCK NEWBRIDGE
NEW BRUNSWICK

46°09'08.000" N
67°32'34.000" W
154.00 m
8105603
71606
EWD

Download Data

Hourly Data (September 2017)
Hourly Data Report for September 4, 2017
Temp Definition
°C
Dew Point Temp Definition
°C
Rel Hum Definition
%
Wind Dir Definition
10's deg

Wind Spd Definition
km/h
Visibility Definition
km
Stn Press Definition
kPa
Hmdx Definition


Wind Chill Definition


Weather Definition


TIME
00:00 11.4 10.7 95 8 8   98.98     LegendNANA
01:00 11.5 10.8 96 9 6   98.77     LegendNANA
02:00 11.6 10.9 96 7 9   98.55     LegendNANA
03:00 11.6 11.0 96 8 7   98.42     LegendNANA
04:00 11.6 11.1 97 11 4   98.36     LegendNANA
05:00 11.5 11.1 98 32 7   98.33     LegendNANA
06:00 11.4 11.0 97 31 6   98.32     LegendNANA
07:00 11.5 11.1 97 26 9   98.44     LegendNANA
08:00 11.9 11.2 95 26 11   98.51     LegendNANA
09:00 12.9 11.2 90 26 12   98.56     LegendNANA
10:00 13.7 11.4 86 25 15   98.66     LegendNANA
11:00 14.3 10.8 79 27 13   98.75     LegendNANA
12:00 16.0 11.4 74 26 14   98.79     LegendNANA
13:00 16.7 11.0 69 26 16   98.82     LegendNANA
14:00 16.0 10.7 71 25 17   98.87     LegendNANA
15:00 19.0 11.8 63 23 11   98.81     LegendNANA
16:00 19.4 11.0 58 25 14   98.80     LegendNANA
17:00 20.0 11.2 57 22 8   98.84     LegendNANA
18:00 19.2 11.5 61 20 6   98.87     LegendNANA
19:00 18.0 11.7 67 17 5   98.88     LegendNANA
20:00 17.3 11.8 70 16 7   98.91     LegendNANA
21:00 17.3 11.9 71 17 9   98.91     LegendNANA
22:00 17.5 12.4 72 17 12   98.93     LegendNANA
23:00 17.1 12.5 74 17 9   98.93     LegendNANA

Notes on Data Quality.

Legend

  • E = Estimated
  • M = Missing
  • NA = Not Available
  • ‡ = Partner data that is not subject to review by the National Climate Archives
Date modified: